Location: Paderno d�Adda
(45.6667°N, 9.4333°E)
Time: 16:06:21
(UTC+00:00)

CZ-2D R/B - Pass Details

Date: 19 September 2020
Orbit: 520 x 539 km, 97.4° (Epoch: 20 October)

Event Time Altitude Azimuth Distance (km) Brightness Sun altitude
Rises 18:04:04 0° 179° (S) 2,681 6.7 -7.6°
Reaches altitude 10° 18:06:13 10° 184° (S) 1,795 5.9 -8.0°
Maximum altitude 18:09:59 50° 261° (W) 698 4.3 -8.6°
Drops below altitude 10° 18:13:48 10° 337° (NNW) 1,808 6.4 -9.3°
Sets 18:15:59 0° 343° (NNW) 2,703 7.3 -9.7°
